Tekamah, NE

7:34 PM CDT on June 27, 2017 (GMT -0500)
Tekamah

Weather History for KTQE - December, 2012

Change the Weather History Date:

Thursday, December 20, 2012

  Actual Average Record
Temperature  
Mean Temperature 22 °F -  
Max Temperature 26 °F 31 °F 59 °F (1979)
Min Temperature 15 °F 12 °F -18 °F (1983)
Degree Days  
Heating Degree Days 44    
Moisture  
Dew Point 17 °F    
Average Humidity 84    
Maximum Humidity 100    
Minimum Humidity 71    
Precipitation  
Precipitation 0.01 in - - ()
Sea Level Pressure  
Sea Level Pressure 30.00 in    
Wind  
Wind Speed 28 mph (NNW)    
Max Wind Speed 32 mph    
Max Gust Speed 41 mph    
Visibility 3 miles    
Events Fog , Snow    
Averages and records for this station are not official NWS values.
T = Trace of Precipitation, MM = Missing Value Source: NWS Daily Summary

Daily Weather History Graph

Daily Weather History Graph

Search for Another Location

Airport or City:

Trip Planner

Search our weather history database for the weather conditions in past years. The results will help you decide how hot, cold, wet, or windy it might be!

Date:

Astronomy

Dec. 20, 2012 Rise Set
Actual Time 7:48 AM CST 4:56 PM CST
Civil Twilight 7:16 AM CST 5:28 PM CST
Nautical Twilight 6:41 AM CST 6:03 PM CST
Astronomical Twilight 6:07 AM CST 6:37 PM CST
Moon 12:19 PM CST (12/20) 12:31 AM CST (12/20)
Length of Visible Light 10h 11m
Length of Day
9h 08m
First Quarter, 55% of the Moon is Illuminated
Dec 20
First Quarter
Dec 28
Full
Jan 4
Last Quarter
Jan 11
New
Jan 18
First Quarter

Hourly Weather History & Observations

Time (CST) Temp. Windchill Dew Point Humidity Pressure Visibility Wind Dir Wind Speed Gust Speed Precip Events Conditions
12:05 AM 26.6 °F 10.0 °F 26.6 °F 100% 29.84 in 0.2 mi North 31.1 mph 41.4 mph N/A Fog Light Freezing Fog
12:54 AM 25.0 °F 7.8 °F 24.1 °F 96% 29.87 in 0.5 mi NNW 31.1 mph 36.8 mph 0.01 in Fog Light Freezing Fog
1:19 AM 24.8 °F 7.6 °F 23.0 °F 93% 29.84 in 0.5 mi NNW 31.1 mph 38.0 mph N/A Fog Light Freezing Fog
1:54 AM 24.1 °F 7.4 °F 21.9 °F 91% 29.87 in 0.5 mi NNW 27.6 mph 35.7 mph N/A Fog Light Freezing Fog
2:54 AM 23.0 °F 5.4 °F 19.9 °F 88% 29.87 in 0.5 mi NNW 29.9 mph 38.0 mph N/A Fog Light Freezing Fog
3:07 AM 21.2 °F 3.3 °F 19.4 °F 93% 29.85 in 1.0 mi NNW 28.8 mph 35.7 mph N/A   Overcast
3:17 AM 21.2 °F 3.5 °F 19.4 °F 93% 29.85 in 0.8 mi NNW 27.6 mph 40.3 mph N/A   Overcast
3:45 AM 21.2 °F 3.3 °F 19.4 °F 93% 29.86 in 0.5 mi NNW 28.8 mph 39.1 mph N/A Fog Light Freezing Fog
3:54 AM 21.9 °F 4.2 °F 19.0 °F 89% 29.88 in 0.5 mi NNW 28.8 mph 39.1 mph N/A Fog Light Freezing Fog
4:09 AM 21.2 °F 2.4 °F 19.4 °F 93% 29.86 in 0.8 mi NNW 32.2 mph - N/A   Overcast
4:30 AM 21.2 °F 3.0 °F 17.6 °F 86% 29.86 in 1.0 mi NNW 29.9 mph - N/A   Overcast
4:37 AM 21.2 °F 3.0 °F 17.6 °F 86% 29.86 in 0.8 mi NNW 29.9 mph 36.8 mph N/A   Overcast
4:54 AM 21.9 °F 3.7 °F 18.0 °F 85% 29.90 in 0.8 mi NNW 31.1 mph 39.1 mph N/A   Overcast
5:09 AM 21.2 °F 3.0 °F 17.6 °F 86% 29.88 in 1.0 mi NNW 29.9 mph - N/A   Overcast
5:24 AM 21.2 °F 3.3 °F 17.6 °F 86% 29.89 in 1.0 mi NNW 28.8 mph 36.8 mph N/A   Overcast
5:46 AM 21.2 °F 2.7 °F 17.6 °F 86% 29.91 in 0.8 mi NNW 31.1 mph 38.0 mph N/A   Overcast
5:54 AM 21.0 °F 3.0 °F 17.1 °F 85% 29.94 in 1.0 mi NNW 28.8 mph 38.0 mph N/A   Overcast
6:33 AM 19.4 °F 0.2 °F 17.6 °F 93% 29.93 in 0.8 mi NNW 31.1 mph 36.8 mph 0.00 in Snow Light Snow
6:54 AM 19.9 °F 1.0 °F 16.0 °F 85% 29.97 in 0.8 mi NNW 31.1 mph 35.7 mph 0.00 in Snow Light Snow
7:01 AM 19.4 °F 0.5 °F 15.8 °F 86% 29.95 in 1.0 mi NNW 29.9 mph 36.8 mph 0.00 in Snow Light Snow
7:54 AM 19.0 °F 0.6 °F 15.1 °F 85% 29.99 in 1.0 mi NNW 27.6 mph 36.8 mph 0.00 in Snow Light Snow
8:21 AM 19.4 °F 0.8 °F 15.8 °F 86% 29.97 in 0.8 mi NNW 28.8 mph 35.7 mph 0.00 in Snow Light Snow
8:54 AM 19.9 °F 1.8 °F 16.0 °F 85% 30.01 in 0.8 mi NW 27.6 mph 38.0 mph 0.00 in Snow Light Snow
9:40 AM 21.2 °F 2.7 °F 17.6 °F 86% 30.00 in 0.5 mi NW 31.1 mph 36.8 mph 0.00 in Fog , Snow Light Snow
9:54 AM 21.0 °F 2.2 °F 17.1 °F 85% 30.04 in 0.5 mi NW 32.2 mph 39.1 mph 0.00 in Fog , Snow Light Snow
10:54 AM 21.0 °F 2.7 °F 17.1 °F 85% 30.07 in 0.5 mi NW 29.9 mph 39.1 mph 0.00 in Fog , Snow Light Snow
11:22 AM 21.2 °F 2.7 °F 15.8 °F 80% 30.04 in 0.5 mi NW 31.1 mph 40.3 mph 0.00 in Snow Snow
11:35 AM 21.2 °F 4.5 °F 15.8 °F 80% 30.05 in 1.8 mi NW 24.2 mph 32.2 mph 0.00 in Snow Light Snow
11:42 AM 21.2 °F 3.9 °F 15.8 °F 80% 30.04 in 2.0 mi NW 26.5 mph 33.4 mph 0.00 in Snow Light Snow
11:49 AM 21.2 °F 4.5 °F 15.8 °F 80% 30.04 in 1.8 mi NW 24.2 mph 33.4 mph 0.00 in Snow Light Snow
11:54 AM 21.0 °F 4.6 °F 16.0 °F 81% 30.08 in 2.5 mi NW 23.0 mph 31.1 mph 0.00 in Snow Light Snow
12:20 PM 21.2 °F 4.2 °F 15.8 °F 80% 30.05 in 3.0 mi NW 25.3 mph 33.4 mph 0.00 in   Mostly Cloudy
12:29 PM 21.2 °F 3.9 °F 15.8 °F 80% 30.04 in 1.8 mi NW 26.5 mph 33.4 mph 0.00 in   Mostly Cloudy
12:43 PM 21.2 °F 3.9 °F 15.8 °F 80% 30.05 in 2.0 mi NW 26.5 mph 34.5 mph 0.00 in Snow Blowing Snow
12:48 PM 21.2 °F 3.3 °F 15.8 °F 80% 30.05 in 1.8 mi NW 28.8 mph 34.5 mph 0.00 in Snow Blowing Snow
12:54 PM 21.9 °F 5.1 °F 16.0 °F 78% 30.08 in 2.5 mi NNW 25.3 mph - 0.00 in Snow Blowing Snow
1:02 PM 21.2 °F 4.9 °F 15.8 °F 80% 30.05 in 4.0 mi NNW 23.0 mph 29.9 mph N/A Snow Blowing Snow
1:54 PM 21.9 °F 5.5 °F 16.0 °F 78% 30.09 in 3.0 mi NW 24.2 mph - 0.00 in   Clear
2:41 PM 21.2 °F 4.2 °F 15.8 °F 80% 30.07 in 6.0 mi NW 25.3 mph 31.1 mph 0.00 in Snow Blowing Snow
2:54 PM 21.9 °F 5.8 °F 15.1 °F 75% 30.12 in 7.0 mi NW 23.0 mph - 0.00 in   Clear
3:54 PM 21.9 °F 5.1 °F 15.1 °F 75% 30.13 in 8.0 mi NW 25.3 mph 29.9 mph 0.00 in   Clear
4:54 PM 21.0 °F 6.6 °F 14.0 °F 74% 30.15 in 8.0 mi NW 17.3 mph - N/A   Clear
6:54 PM 19.0 °F 8.2 °F 12.0 °F 74% 30.19 in 7.0 mi NNW 9.2 mph - 0.00 in Snow Light Snow
7:54 PM 18.0 °F 4.8 °F 12.0 °F 78% 30.19 in 10.0 mi NNW 12.7 mph - 0.00 in   Clear
8:54 PM 18.0 °F 7.7 °F 10.0 °F 71% 30.21 in 9.0 mi NNW 8.1 mph - 0.00 in Snow Light Snow
9:54 PM 18.0 °F - 10.0 °F 71% 30.22 in 10.0 mi Calm Calm - 0.00 in   Clear
10:54 PM 17.1 °F 3.6 °F 10.0 °F 74% 30.25 in 10.0 mi WNW 12.7 mph - N/A   Clear
11:54 PM 15.1 °F 5.2 °F 9.0 °F 77% 30.27 in 10.0 mi North 6.9 mph - N/A   Clear